Regional Weather Roundup
Issued by NWS

Home | Current Version | Previous Version | Graphics & Text | Print | Product List | Glossary On
Versions: 1 2 3 4 5 6 7 8 9 10 11 12 13 14 15 16 17 18 19 20 21 22 23 24 25 26 27 28 29 30 31 32 33 34 35 36 37 38 39 40 41 42 43 44 45 46 47 48 49 50
000
ASUS45 KBOI 281110
RWRID
WEATHER ROUNDUP FOR IDAHO
NATIONAL WEATHER SERVICE BOISE ID
500 AM MDT MON JUL 28 2014

NOTE: "FAIR" INDICATES FEW OR NO CLOUDS BELOW 12000 FEET
WITH NO SIGNIFICANT WEATHER AND/OR OBSTRUCTIONS TO VISIBILITY

IDZ012-014-281200-
SOUTHWEST IDAHO


CITY           SKY/WX    TMP DP  RH WIND       PRES   REMARKS
BOISE          PTCLDY    74  39  28 S5        30.03R
CALDWELL       PTCLDY    66  45  45 W7        30.03S
MOUNTAIN HOME  CLOUDY    81  40  23 W10       30.03R
$$

IDZ016-017-281200-
SOUTHCENTRAL IDAHO


CITY           SKY/WX    TMP DP  RH WIND       PRES   REMARKS
BURLEY         MOCLDY    71  44  37 SW9       30.11F
JEROME         MOCLDY    71  46  40 E8        30.12R
TWIN FALLS     CLOUDY    77  37  23 S8        30.12S
$$

IDZ019>023-281200-
SOUTHEAST IDAHO


CITY           SKY/WX    TMP DP  RH WIND       PRES   REMARKS
IDAHO FALLS    CLEAR     49  45  86 NW7       30.19R
POCATELLO      CLEAR     58  43  57 CALM      30.17R
REXBURG        PTCLDY    54  42  64 NE3       30.21R
$$

IDZ006-010-011-018-031-032-281200-
CENTRAL IDAHO MOUNTAINS


CITY           SKY/WX    TMP DP  RH WIND       PRES   REMARKS
MCCALL         PTCLDY    59  40  49 CALM      30.20S
HAILEY         CLOUDY    70  37  30 NW9       30.23S
STANLEY          N/A     55  33  43 CALM      30.36R
SALMON           N/A     54  14  20 CALM      30.19
CHALLIS        PTCLDY    62  34  35 SW6       30.24R
$$

IDZ002-004-006-007-026-281200-
NORTHERN IDAHO


CITY           SKY/WX    TMP DP  RH WIND       PRES   REMARKS
LEWISTON       PTCLDY    72  42  34 NW6       30.04R
LOWELL           N/A     59  52  77 N5        30.10R
COEUR D`ALENE  PTCLDY    63  48  59 E6        30.13R
MULLAN PASS    MOCLDY    65  35  33 SE6       30.32S
$$


USA.gov is the U.S. government's official web portal to all federal, state and local government web resources and services.